owner,sensor,date,latitude,longitude,vertical_datum,wind_speed,wind_to_direction,wind_speed_of_gust,qcFlag 
TABS,ioos:station:wmo:42044:1,2003-01-01T00:09:00Z,26.1914,-97.0507,0.0,4.946311757,333.8492283,8.6,'11111222,11111222,11111222' 
TABS,ioos:station:wmo:42044:1,2003-01-01T00:39:00Z,26.1914,-97.0507,0.0,5.332541608,322.3133663,8.32,'11111222,11111222,11111222' 
TABS,ioos:station:wmo:42044:1,2003-01-01T01:09:00Z,26.1914,-97.0507,0.0,6.800183821,328.5303562,9.81,'11111222,11111222,11111222' 
TABS,ioos:station:wmo:42044:1,2003-01-01T01:39:00Z,26.1914,-97.0507,0.0,6.784570731,328.7464433,9.41,'11111222,11111222,11111222' 
TABS,ioos:station:wmo:42044:1,2003-01-01T02:09:00Z,26.1914,-97.0507,0.0,7.084320715,332.7837416,10.59,'11111222,11111222,11111222' 
TABS,ioos:station:wmo:42044:1,2003-01-01T02:39:00Z,26.1914,-97.0507,0.0,6.170542926,329.195348,9.04,'11111222,11111222,11111222' 
TABS,ioos:station:wmo:42044:1,2003-01-01T03:09:00Z,26.1914,-97.0507,0.0,5.196777848,332.9910393,7.79,'11111222,11111222,11111222' 
TABS,ioos:station:wmo:42044:1,2003-01-01T03:39:00Z,26.1914,-97.0507,0.0,5.923250797,336.9409675,8.18,'11111222,11111222,11111222' 
TABS,ioos:station:wmo:42044:1,2003-01-01T04:09:00Z,26.1914,-97.0507,0.0,6.088021025,343.5890433,9.76,'11111222,11111222,11111222' 
TABS,ioos:station:wmo:42044:1,2003-01-01T04:39:00Z,26.1914,-97.0507,0.0,5.70263974,336.7616754,7.87,'11111222,11111222,11111222' 
TABS,ioos:station:wmo:42044:1,2003-01-01T05:09:00Z,26.1914,-97.0507,0.0,4.727462321,332.6759621,6.8,'11111222,11111222,11111222' 
TABS,ioos:station:wmo:42044:1,2003-01-01T05:39:00Z,26.1914,-97.0507,0.0,3.925519074,313.65808,5.29,'11111222,11111222,11111222' 
TABS,ioos:station:wmo:42044:1,2003-01-01T06:09:00Z,26.1914,-97.0507,0.0,3.445417246,301.1062813,4.86,'11111222,11111222,11111222' 
TABS,ioos:station:wmo:42044:1,2003-01-01T06:39:00Z,26.1914,-97.0507,0.0,3.323386827,308.5250949,4.83,'11111222,11111222,11111222' 
TABS,ioos:station:wmo:42044:1,2003-01-01T07:09:00Z,26.1914,-97.0507,0.0,2.637821071,308.9989421,4.06,'11111222,11111222,11111222' 
TABS,ioos:station:wmo:42044:1,2003-01-01T07:39:00Z,26.1914,-97.0507,0.0,2.169469981,277.6818867,3.28,'11111222,11111222,11111222' 
TABS,ioos:station:wmo:42044:1,2003-01-01T08:09:00Z,26.1914,-97.0507,0.0,1.552610705,273.3231127,3.82,'11111222,11111222,11111222' 
TABS,ioos:station:wmo:42044:1,2003-01-01T08:39:00Z,26.1914,-97.0507,0.0,2.511613028,267.9464542,4.64,'11111222,11111222,11111222' 
TABS,ioos:station:wmo:42044:1,2003-01-01T09:09:00Z,26.1914,-97.0507,0.0,0.800562302,221.4553471,3.19,'11111222,11111222,11111222' 
TABS,ioos:station:wmo:42044:1,2003-01-01T09:39:00Z,26.1914,-97.0507,0.0,1.889153249,209.1431203,3.56,'11111222,11111222,11111222' 
TABS,ioos:station:wmo:42044:1,2003-01-01T10:09:00Z,26.1914,-97.0507,0.0,3.0152446,196.5720113,5.41,'11111222,11111222,11111222' 
TABS,ioos:station:wmo:42044:1,2003-01-01T10:39:00Z,26.1914,-97.0507,0.0,3.210436107,191.1351151,5.39,'11111222,11111222,11111222' 
TABS,ioos:station:wmo:42044:1,2003-01-01T11:09:00Z,26.1914,-97.0507,0.0,4.791502896,190.5831129,8.01,'11111222,11111222,11111222' 
TABS,ioos:station:wmo:42044:1,2003-01-01T11:39:00Z,26.1914,-97.0507,0.0,5.88765658,185.555859,8.73,'11111222,11111222,11111222' 
TABS,ioos:station:wmo:42044:1,2003-01-01T12:09:00Z,26.1914,-97.0507,0.0,6.468539248,190.5110174,8.74,'11111222,11111222,11111222' 
TABS,ioos:station:wmo:42044:1,2003-01-01T12:39:00Z,26.1914,-97.0507,0.0,6.242891958,185.8843022,8.65,'11111222,11111222,11111222' 
TABS,ioos:station:wmo:42044:1,2003-01-01T13:09:00Z,26.1914,-97.0507,0.0,5.887996264,184.4810016,7.92,'11111222,11111222,11111222' 
TABS,ioos:station:wmo:42044:1,2003-01-01T13:39:00Z,26.1914,-97.0507,0.0,6.357397266,184.2399242,8.03,'11111222,11111222,11111222' 
TABS,ioos:station:wmo:42044:1,2003-01-01T14:09:00Z,26.1914,-97.0507,0.0,6.207906249,197.8221958,8.13,'11111222,11111222,11111222' 
TABS,ioos:station:wmo:42044:1,2003-01-01T14:39:00Z,26.1914,-97.0507,0.0,6.65050374,194.454325,8.48,'11111222,11111222,11111222' 
TABS,ioos:station:wmo:42044:1,2003-01-01T15:09:00Z,26.1914,-97.0507,0.0,6.898267899,189.1757616,9.0,'11111222,11111222,11111222' 
TABS,ioos:station:wmo:42044:1,2003-01-01T15:39:00Z,26.1914,-97.0507,0.0,8.499529399,134.7143165,10.65,'11111222,11111222,11111222' 
TABS,ioos:station:wmo:42044:1,2003-01-01T16:09:00Z,26.1914,-97.0507,0.0,7.653103945,133.6237906,11.24,'11111222,11111222,11111222' 
TABS,ioos:station:wmo:42044:1,2003-01-01T16:39:00Z,26.1914,-97.0507,0.0,8.57205343,139.2105151,12.03,'11111222,11111222,11111222' 
TABS,ioos:station:wmo:42044:1,2003-01-01T17:09:00Z,26.1914,-97.0507,0.0,7.450429518,137.0127251,10.86,'11111222,11111222,11111222' 
TABS,ioos:station:wmo:42044:1,2003-01-01T17:39:00Z,26.1914,-97.0507,0.0,7.600401305,139.8569083,11.88,'11111222,11111222,11111222' 
TABS,ioos:station:wmo:42044:1,2003-01-01T18:09:00Z,26.1914,-97.0507,0.0,6.839312831,142.0077559,10.86,'11111222,11111222,11111222' 
TABS,ioos:station:wmo:42044:1,2003-01-01T18:39:00Z,26.1914,-97.0507,0.0,5.905878427,145.2069661,9.1,'11111222,11111222,11111222' 
TABS,ioos:station:wmo:42044:1,2003-01-01T19:09:00Z,26.1914,-97.0507,0.0,6.111178282,151.8836689,10.13,'11111222,11111222,11111222' 
TABS,ioos:station:wmo:42044:1,2003-01-01T19:39:00Z,26.1914,-97.0507,0.0,5.646237685,149.8022792,8.58,'11111222,11111222,11111222' 
TABS,ioos:station:wmo:42044:1,2003-01-01T20:09:00Z,26.1914,-97.0507,0.0,6.457561459,148.2300274,10.9,'11111222,11111222,11111222' 
TABS,ioos:station:wmo:42044:1,2003-01-01T20:39:00Z,26.1914,-97.0507,0.0,5.620195726,137.5963252,7.89,'11111222,11111222,11111222' 
TABS,ioos:station:wmo:42044:1,2003-01-01T21:09:00Z,26.1914,-97.0507,0.0,6.676301371,138.8870405,9.37,'11111222,11111222,11111222' 
TABS,ioos:station:wmo:42044:1,2003-01-01T21:39:00Z,26.1914,-97.0507,0.0,7.066859274,154.3417224,9.95,'11111222,11111222,11111222' 
TABS,ioos:station:wmo:42044:1,2003-01-01T22:09:00Z,26.1914,-97.0507,0.0,6.064231196,153.5619815,9.32,'11111222,11111222,11111222' 
TABS,ioos:station:wmo:42044:1,2003-01-01T22:39:00Z,26.1914,-97.0507,0.0,5.877210223,154.3944196,9.34,'11111222,11111222,11111222' 
TABS,ioos:station:wmo:42044:1,2003-01-01T23:09:00Z,26.1914,-97.0507,0.0,4.514000443,154.9680394,7.31,'11111222,11111222,11111222' 
TABS,ioos:station:wmo:42044:1,2003-01-01T23:39:00Z,26.1914,-97.0507,0.0,4.035752718,145.6014458,6.49,'11111222,11111222,11111222' 
TABS,ioos:station:wmo:42044:1,2003-01-02T00:09:00Z,26.1914,-97.0507,0.0,3.794232465,142.4961558,6.36,'11111222,11111222,11111222' 
TABS,ioos:station:wmo:42044:1,2003-01-02T00:39:00Z,26.1914,-97.0507,0.0,2.89,118.0728422,5.04,'11111222,11111222,11111222' 
TABS,ioos:station:wmo:42044:1,2003-01-02T01:09:00Z,26.1914,-97.0507,0.0,2.838045102,73.41639597,4.18,'11111222,11111222,11111222' 
TABS,ioos:station:wmo:42044:1,2003-01-02T01:39:00Z,26.1914,-97.0507,0.0,4.092358733,74.8427311,5.76,'11111222,11111222,11111222' 
TABS,ioos:station:wmo:42044:1,2003-01-02T02:09:00Z,26.1914,-97.0507,0.0,3.877963383,70.25635426,5.53,'11111222,11111222,11111222' 
TABS,ioos:station:wmo:42044:1,2003-01-02T02:39:00Z,26.1914,-97.0507,0.0,3.992705849,82.66098991,5.88,'11111222,11111222,11111222' 
TABS,ioos:station:wmo:42044:1,2003-01-02T03:09:00Z,26.1914,-97.0507,0.0,4.147444997,76.33193183,5.29,'11111222,11111222,11111222' 
TABS,ioos:station:wmo:42044:1,2003-01-02T03:39:00Z,26.1914,-97.0507,0.0,3.81980366,66.38743414,4.76,'11111222,11111222,11111222' 
TABS,ioos:station:wmo:42044:1,2003-01-02T04:09:00Z,26.1914,-97.0507,0.0,3.764066949,68.00035776,5.23,'11111222,11111222,11111222' 
TABS,ioos:station:wmo:42044:1,2003-01-02T04:39:00Z,26.1914,-97.0507,0.0,3.451984936,60.68710141,4.37,'11111222,11111222,11111222' 
TABS,ioos:station:wmo:42044:1,2003-01-02T05:09:00Z,26.1914,-97.0507,0.0,3.376462646,63.43459003,4.59,'11111222,11111222,11111222' 
TABS,ioos:station:wmo:42044:1,2003-01-02T05:39:00Z,26.1914,-97.0507,0.0,2.938639141,66.74984029,3.84,'11111222,11111222,11111222' 
TABS,ioos:station:wmo:42044:1,2003-01-02T06:09:00Z,26.1914,-97.0507,0.0,2.329978541,55.49113679,3.8,'11111222,11111222,11111222' 
TABS,ioos:station:wmo:42044:1,2003-01-02T06:39:00Z,26.1914,-97.0507,0.0,2.17278623,39.77150465,3.99,'11111222,11111222,11111222' 
TABS,ioos:station:wmo:42044:1,2003-01-02T07:09:00Z,26.1914,-97.0507,0.0,1.556020565,37.16417753,3.72,'11111222,11111222,11111222' 
TABS,ioos:station:wmo:42044:1,2003-01-02T07:39:00Z,26.1914,-97.0507,0.0,1.87808413,7.95729616,4.44,'11111222,11111222,11111222' 
TABS,ioos:station:wmo:42044:1,2003-01-02T08:09:00Z,26.1914,-97.0507,0.0,2.441003892,336.5855095,5.75,'11111222,11111222,11111222' 
TABS,ioos:station:wmo:42044:1,2003-01-02T08:39:00Z,26.1914,-97.0507,0.0,9.867851843,285.0361069,14.4,'11111222,11111222,11111222' 
TABS,ioos:station:wmo:42044:1,2003-01-02T09:09:00Z,26.1914,-97.0507,0.0,10.69971962,299.2001675,15.04,'11111222,11111222,11111222' 
TABS,ioos:station:wmo:42044:1,2003-01-02T09:39:00Z,26.1914,-97.0507,0.0,14.36624516,328.201629,19.37,'11111222,11111222,11111222' 
TABS,ioos:station:wmo:42044:1,2003-01-02T10:09:00Z,26.1914,-97.0507,0.0,14.97372699,334.1021927,21.39,'11111222,11111222,11111222' 
TABS,ioos:station:wmo:42044:1,2003-01-02T10:39:00Z,26.1914,-97.0507,0.0,14.9165311,330.4788994,20.64,'11111222,11111222,11111222' 
TABS,ioos:station:wmo:42044:1,2003-01-02T11:09:00Z,26.1914,-97.0507,0.0,15.18131747,331.1725286,21.08,'11111222,11111222,11111222' 
TABS,ioos:station:wmo:42044:1,2003-01-02T11:39:00Z,26.1914,-97.0507,0.0,14.67513884,329.0829757,19.56,'11111222,11111222,11111222' 
TABS,ioos:station:wmo:42044:1,2003-01-02T12:09:00Z,26.1914,-97.0507,0.0,14.36129521,326.5311039,20.61,'11111222,11111222,11111222' 
TABS,ioos:station:wmo:42044:1,2003-01-02T12:39:00Z,26.1914,-97.0507,0.0,14.18456908,324.5842801,19.6,'11111222,11111222,11111222' 
TABS,ioos:station:wmo:42044:1,2003-01-02T13:09:00Z,26.1914,-97.0507,0.0,14.39200125,323.1060917,20.12,'11111222,11111222,11111222' 
TABS,ioos:station:wmo:42044:1,2003-01-02T13:39:00Z,26.1914,-97.0507,0.0,13.93158282,323.9936661,20.35,'11111222,11111222,11111222' 
TABS,ioos:station:wmo:42044:1,2003-01-02T14:09:00Z,26.1914,-97.0507,0.0,14.43670669,321.3834587,19.61,'11111222,11111222,11111222' 
TABS,ioos:station:wmo:42044:1,2003-01-02T14:39:00Z,26.1914,-97.0507,0.0,14.71490741,318.553894,21.73,'11111222,11111222,11111222' 
TABS,ioos:station:wmo:42044:1,2003-01-02T15:09:00Z,26.1914,-97.0507,0.0,14.26235605,318.1261436,20.64,'11111222,11111222,11111222' 
TABS,ioos:station:wmo:42044:1,2003-01-02T15:39:00Z,26.1914,-97.0507,0.0,12.88702448,319.0272656,19.14,'11111222,11111222,11111222' 
TABS,ioos:station:wmo:42044:1,2003-01-02T16:09:00Z,26.1914,-97.0507,0.0,12.06045604,312.513266,18.56,'11111222,11111222,11111222' 
TABS,ioos:station:wmo:42044:1,2003-01-02T16:39:00Z,26.1914,-97.0507,0.0,11.10336886,309.8847616,16.13,'11111222,11111222,11111222' 
TABS,ioos:station:wmo:42044:1,2003-01-02T17:09:00Z,26.1914,-97.0507,0.0,11.22327938,312.7612301,15.87,'11111222,11111222,11111222' 
TABS,ioos:station:wmo:42044:1,2003-01-02T17:39:00Z,26.1914,-97.0507,0.0,10.77016713,307.1890039,15.33,'11111222,11111222,11111222' 
TABS,ioos:station:wmo:42044:1,2003-01-02T18:09:00Z,26.1914,-97.0507,0.0,11.58725593,304.8420562,16.84,'11111222,11111222,11111222' 
TABS,ioos:station:wmo:42044:1,2003-01-02T18:39:00Z,26.1914,-97.0507,0.0,11.25301737,305.158786,16.58,'11111222,11111222,11111222' 
TABS,ioos:station:wmo:42044:1,2003-01-02T19:09:00Z,26.1914,-97.0507,0.0,11.77465498,314.1396644,16.23,'11111222,11111222,11111222' 
TABS,ioos:station:wmo:42044:1,2003-01-02T19:39:00Z,26.1914,-97.0507,0.0,11.0820305,310.3152005,16.18,'11111222,11111222,11111222' 
TABS,ioos:station:wmo:42044:1,2003-01-02T20:09:00Z,26.1914,-97.0507,0.0,9.851766339,298.9585069,14.07,'11111222,11111222,11111222' 
TABS,ioos:station:wmo:42044:1,2003-01-02T20:39:00Z,26.1914,-97.0507,0.0,8.28254188,296.2246841,12.32,'11111222,11111222,11111222' 
TABS,ioos:station:wmo:42044:1,2003-01-02T21:09:00Z,26.1914,-97.0507,0.0,9.009267451,293.6912283,12.66,'11111222,11111222,11111222' 
TABS,ioos:station:wmo:42044:1,2003-01-02T21:39:00Z,26.1914,-97.0507,0.0,8.417511509,302.2361925,12.8,'11111222,11111222,11111222' 
TABS,ioos:station:wmo:42044:1,2003-01-02T22:09:00Z,26.1914,-97.0507,0.0,9.369871931,304.5210396,12.36,'11111222,11111222,11111222' 
TABS,ioos:station:wmo:42044:1,2003-01-02T22:39:00Z,26.1914,-97.0507,0.0,9.629460006,313.0220655,13.78,'11111222,11111222,11111222' 
TABS,ioos:station:wmo:42044:1,2003-01-02T23:09:00Z,26.1914,-97.0507,0.0,9.281519272,328.9302378,12.66,'11111222,11111222,11111222' 
TABS,ioos:station:wmo:42044:1,2003-01-02T23:39:00Z,26.1914,-97.0507,0.0,9.400106382,330.9807745,12.67,'11111222,11111222,11111222' 
TABS,ioos:station:wmo:42044:1,2003-01-03T00:09:00Z,26.1914,-97.0507,0.0,8.75057141,322.4751992,11.89,'11111222,11111222,11111222' 
TABS,ioos:station:wmo:42044:1,2003-01-03T00:39:00Z,26.1914,-97.0507,0.0,8.824533982,320.609972,11.74,'11111222,11111222,11111222' 
TABS,ioos:station:wmo:42044:1,2003-01-03T01:09:00Z,26.1914,-97.0507,0.0,9.482747492,315.5553161,13.96,'11111222,11111222,11111222' 
TABS,ioos:station:wmo:42044:1,2003-01-03T01:39:00Z,26.1914,-97.0507,0.0,9.010271916,309.325108,12.63,'11111222,11111222,11111222' 
TABS,ioos:station:wmo:42044:1,2003-01-03T02:09:00Z,26.1914,-97.0507,0.0,9.307212257,309.4192565,13.74,'11111222,11111222,11111222' 
TABS,ioos:station:wmo:42044:1,2003-01-03T02:39:00Z,26.1914,-97.0507,0.0,9.535197953,313.4701076,13.1,'11111222,11111222,11111222' 
TABS,ioos:station:wmo:42044:1,2003-01-03T03:09:00Z,26.1914,-97.0507,0.0,9.623434938,318.0746308,13.95,'11111222,11111222,11111222' 
TABS,ioos:station:wmo:42044:1,2003-01-03T03:39:00Z,26.1914,-97.0507,0.0,9.929763341,318.2657197,13.6,'11111222,11111222,11111222' 
TABS,ioos:station:wmo:42044:1,2003-01-03T04:09:00Z,26.1914,-97.0507,0.0,9.533650927,320.0634998,13.36,'11111222,11111222,11111222' 
TABS,ioos:station:wmo:42044:1,2003-01-03T04:39:00Z,26.1914,-97.0507,0.0,9.679101198,323.994261,13.61,'11111222,11111222,11111222' 
TABS,ioos:station:wmo:42044:1,2003-01-03T05:09:00Z,26.1914,-97.0507,0.0,9.481191908,335.2458103,13.36,'11111222,11111222,11111222' 
TABS,ioos:station:wmo:42044:1,2003-01-03T05:39:00Z,26.1914,-97.0507,0.0,9.598775964,329.0258686,13.13,'11111222,11111222,11111222' 
TABS,ioos:station:wmo:42044:1,2003-01-03T06:09:00Z,26.1914,-97.0507,0.0,8.969503888,340.5952335,12.74,'11111222,11111222,11111222' 
TABS,ioos:station:wmo:42044:1,2003-01-03T06:39:00Z,26.1914,-97.0507,0.0,9.184405261,339.8088674,12.65,'11111222,11111222,11111222' 
TABS,ioos:station:wmo:42044:1,2003-01-03T07:09:00Z,26.1914,-97.0507,0.0,8.251212032,340.7523899,12.5,'11111222,11111222,11111222' 
TABS,ioos:station:wmo:42044:1,2003-01-03T07:39:00Z,26.1914,-97.0507,0.0,7.960904471,332.7910563,12.66,'11111222,11111222,11111222' 
TABS,ioos:station:wmo:42044:1,2003-01-03T08:09:00Z,26.1914,-97.0507,0.0,8.114141976,295.3964968,10.81,'11111222,11111222,11111222' 
TABS,ioos:station:wmo:42044:1,2003-01-03T08:39:00Z,26.1914,-97.0507,0.0,9.382819406,301.267387,11.38,'11111222,11111222,11111222' 
TABS,ioos:station:wmo:42044:1,2003-01-03T09:09:00Z,26.1914,-97.0507,0.0,9.147775686,301.1355491,11.35,'11111222,11111222,11111222' 
TABS,ioos:station:wmo:42044:1,2003-01-03T09:39:00Z,26.1914,-97.0507,0.0,8.196975052,287.9044056,11.47,'11111222,11111222,11111222' 
TABS,ioos:station:wmo:42044:1,2003-01-03T10:09:00Z,26.1914,-97.0507,0.0,9.246718337,295.1515952,11.95,'11111222,11111222,11111222' 
TABS,ioos:station:wmo:42044:1,2003-01-03T10:39:00Z,26.1914,-97.0507,0.0,9.308404804,303.0753987,11.97,'11111222,11111222,11111222' 
TABS,ioos:station:wmo:42044:1,2003-01-03T11:09:00Z,26.1914,-97.0507,0.0,9.260826097,303.4154385,12.07,'11111222,11111222,11111222' 
TABS,ioos:station:wmo:42044:1,2003-01-03T11:39:00Z,26.1914,-97.0507,0.0,8.971159345,296.7649232,11.53,'11111222,11111222,11111222' 
TABS,ioos:station:wmo:42044:1,2003-01-03T12:09:00Z,26.1914,-97.0507,0.0,9.039054154,295.7712357,11.46,'11111222,11111222,11111222' 
TABS,ioos:station:wmo:42044:1,2003-01-03T12:39:00Z,26.1914,-97.0507,0.0,8.991757337,301.2150271,11.37,'11111222,11111222,11111222' 
TABS,ioos:station:wmo:42044:1,2003-01-03T13:09:00Z,26.1914,-97.0507,0.0,9.111382991,303.1318753,11.39,'11111222,11111222,11111222' 
TABS,ioos:station:wmo:42044:1,2003-01-03T13:39:00Z,26.1914,-97.0507,0.0,8.740120136,295.480196,10.81,'11111222,11111222,11111222' 
TABS,ioos:station:wmo:42044:1,2003-01-03T14:09:00Z,26.1914,-97.0507,0.0,8.522634569,300.1450659,10.59,'11111222,11111222,11111222' 
TABS,ioos:station:wmo:42044:1,2003-01-03T14:39:00Z,26.1914,-97.0507,0.0,8.417083818,295.9256912,10.94,'11111222,11111222,11111222' 
TABS,ioos:station:wmo:42044:1,2003-01-03T15:09:00Z,26.1914,-97.0507,0.0,8.681681865,301.5296045,10.47,'11111222,11111222,11111222' 
TABS,ioos:station:wmo:42044:1,2003-01-03T15:39:00Z,26.1914,-97.0507,0.0,8.124906153,301.8707592,10.15,'11111222,11111222,11111222' 
TABS,ioos:station:wmo:42044:1,2003-01-03T16:09:00Z,26.1914,-97.0507,0.0,8.882206933,304.7277102,11.1,'11111222,11111222,11111222' 
TABS,ioos:station:wmo:42044:1,2003-01-03T16:39:00Z,26.1914,-97.0507,0.0,8.647849444,305.1601991,10.95,'11111222,11111222,11111222' 
TABS,ioos:station:wmo:42044:1,2003-01-03T17:09:00Z,26.1914,-97.0507,0.0,9.023269917,310.4152426,10.98,'11111222,11111222,11111222' 
TABS,ioos:station:wmo:42044:1,2003-01-03T17:39:00Z,26.1914,-97.0507,0.0,8.726843645,315.9284301,11.23,'11111222,11111222,11111222' 
TABS,ioos:station:wmo:42044:1,2003-01-03T18:09:00Z,26.1914,-97.0507,0.0,8.189126938,318.465123,10.64,'11111222,11111222,11111222' 
TABS,ioos:station:wmo:42044:1,2003-01-03T18:39:00Z,26.1914,-97.0507,0.0,7.325708157,332.8751539,9.7,'11111222,11111222,11111222' 
TABS,ioos:station:wmo:42044:1,2003-01-03T19:09:00Z,26.1914,-97.0507,0.0,7.044600769,335.6905149,9.06,'11111222,11111222,11111222' 
TABS,ioos:station:wmo:42044:1,2003-01-03T19:39:00Z,26.1914,-97.0507,0.0,7.264833102,335.8691938,9.75,'11111222,11111222,11111222' 
TABS,ioos:station:wmo:42044:1,2003-01-03T20:09:00Z,26.1914,-97.0507,0.0,6.52350366,338.0353354,9.45,'11111222,11111222,11111222' 
TABS,ioos:station:wmo:42044:1,2003-01-03T20:39:00Z,26.1914,-97.0507,0.0,7.163811834,344.7026186,9.62,'11111222,11111222,11111222' 
TABS,ioos:station:wmo:42044:1,2003-01-03T21:09:00Z,26.1914,-97.0507,0.0,6.744101126,6.55575058,9.53,'11111222,11111222,11111222' 
TABS,ioos:station:wmo:42044:1,2003-01-03T21:39:00Z,26.1914,-97.0507,0.0,6.828250142,7.489061813,10.0,'11111222,11111222,11111222' 
TABS,ioos:station:wmo:42044:1,2003-01-03T22:09:00Z,26.1914,-97.0507,0.0,6.233305704,23.64490174,10.14,'11111222,11111222,11111222' 
TABS,ioos:station:wmo:42044:1,2003-01-03T22:39:00Z,26.1914,-97.0507,0.0,6.651992183,23.28880445,9.7,'11111222,11111222,11111222' 
TABS,ioos:station:wmo:42044:1,2003-01-03T23:09:00Z,26.1914,-97.0507,0.0,5.544961677,24.39237764,8.18,'11111222,11111222,11111222' 
TABS,ioos:station:wmo:42044:1,2003-01-03T23:39:00Z,26.1914,-97.0507,0.0,6.426647649,26.12619837,9.52,'11111222,11111222,11111222' 
TABS,ioos:station:wmo:42044:1,2003-01-04T00:09:00Z,26.1914,-97.0507,0.0,6.422810911,35.17443025,9.64,'11111222,11111222,11111222' 
TABS,ioos:station:wmo:42044:1,2003-01-04T00:39:00Z,26.1914,-97.0507,0.0,6.740934653,48.00614702,9.39,'11111222,11111222,11111222' 
TABS,ioos:station:wmo:42044:1,2003-01-04T01:09:00Z,26.1914,-97.0507,0.0,6.815695122,51.85188476,9.93,'11111222,11111222,11111222' 
TABS,ioos:station:wmo:42044:1,2003-01-04T01:39:00Z,26.1914,-97.0507,0.0,6.200395149,68.02662587,9.43,'11111222,11111222,11111222' 
TABS,ioos:station:wmo:42044:1,2003-01-04T02:09:00Z,26.1914,-97.0507,0.0,5.97235297,64.93637904,8.74,'11111222,11111222,11111222' 
TABS,ioos:station:wmo:42044:1,2003-01-04T02:39:00Z,26.1914,-97.0507,0.0,6.064231196,63.5613501,8.54,'11111222,11111222,11111222' 
TABS,ioos:station:wmo:42044:1,2003-01-04T03:09:00Z,26.1914,-97.0507,0.0,6.276822445,75.9855074,8.53,'11111222,11111222,11111222' 
TABS,ioos:station:wmo:42044:1,2003-01-04T03:39:00Z,26.1914,-97.0507,0.0,5.797671947,77.95316608,9.02,'11111222,11111222,11111222' 
TABS,ioos:station:wmo:42044:1,2003-01-04T04:09:00Z,26.1914,-97.0507,0.0,6.247599539,77.52053646,9.04,'11111222,11111222,11111222' 
TABS,ioos:station:wmo:42044:1,2003-01-04T04:39:00Z,26.1914,-97.0507,0.0,5.93027824,83.31797964,8.62,'11111222,11111222,11111222' 
TABS,ioos:station:wmo:42044:1,2003-01-04T05:09:00Z,26.1914,-97.0507,0.0,5.900483031,83.28408513,8.57,'11111222,11111222,11111222' 
TABS,ioos:station:wmo:42044:1,2003-01-04T05:39:00Z,26.1914,-97.0507,0.0,5.567045895,92.88337763,8.31,'11111222,11111222,11111222' 
TABS,ioos:station:wmo:42044:1,2003-01-04T06:09:00Z,26.1914,-97.0507,0.0,5.672459784,100.3594492,8.5,'11111222,11111222,11111222' 
TABS,ioos:station:wmo:42044:1,2003-01-04T06:39:00Z,26.1914,-97.0507,0.0,5.127231222,104.2263515,8.01,'11111222,11111222,11111222' 
TABS,ioos:station:wmo:42044:1,2003-01-04T07:09:00Z,26.1914,-97.0507,0.0,5.833215237,106.9442366,8.5,'11111222,11111222,11111222' 
TABS,ioos:station:wmo:42044:1,2003-01-04T07:39:00Z,26.1914,-97.0507,0.0,5.630177617,97.65557007,8.65,'11111222,11111222,11111222' 
TABS,ioos:station:wmo:42044:1,2003-01-04T08:09:00Z,26.1914,-97.0507,0.0,5.559253547,106.5120635,8.05,'11111222,11111222,11111222' 
TABS,ioos:station:wmo:42044:1,2003-01-04T08:39:00Z,26.1914,-97.0507,0.0,5.532684701,117.4453871,7.96,'11111222,11111222,11111222' 
TABS,ioos:station:wmo:42044:1,2003-01-04T09:09:00Z,26.1914,-97.0507,0.0,6.556226049,116.8389887,9.52,'11111222,11111222,11111222' 
TABS,ioos:station:wmo:42044:1,2003-01-04T09:39:00Z,26.1914,-97.0507,0.0,6.205972929,118.3823986,8.82,'11111222,11111222,11111222' 
TABS,ioos:station:wmo:42044:1,2003-01-04T10:09:00Z,26.1914,-97.0507,0.0,5.645033215,115.3851595,8.09,'11111222,11111222,11111222' 
TABS,ioos:station:wmo:42044:1,2003-01-04T10:39:00Z,26.1914,-97.0507,0.0,6.17170965,116.1502314,8.62,'11111222,11111222,11111222' 
TABS,ioos:station:wmo:42044:1,2003-01-04T11:09:00Z,26.1914,-97.0507,0.0,5.968785471,114.7620948,8.15,'11111222,11111222,11111222' 
TABS,ioos:station:wmo:42044:1,2003-01-04T11:39:00Z,26.1914,-97.0507,0.0,5.41166333,119.9290824,8.14,'11111222,11111222,11111222' 
TABS,ioos:station:wmo:42044:1,2003-01-04T12:09:00Z,26.1914,-97.0507,0.0,5.444354875,115.1062637,7.71,'11111222,11111222,11111222' 
TABS,ioos:station:wmo:42044:1,2003-01-04T12:39:00Z,26.1914,-97.0507,0.0,5.650991064,108.4673891,8.19,'11111222,11111222,11111222' 
TABS,ioos:station:wmo:42044:1,2003-01-04T13:09:00Z,26.1914,-97.0507,0.0,5.663258779,113.0793977,8.0,'11111222,11111222,11111222' 
TABS,ioos:station:wmo:42044:1,2003-01-04T13:39:00Z,26.1914,-97.0507,0.0,5.555906767,117.902988,7.9,'11111222,11111222,11111222' 
TABS,ioos:station:wmo:42044:1,2003-01-04T14:09:00Z,26.1914,-97.0507,0.0,5.683044958,103.3275027,7.4,'11111222,11111222,11111222' 
TABS,ioos:station:wmo:42044:1,2003-01-04T14:39:00Z,26.1914,-97.0507,0.0,5.787192756,104.6129304,7.62,'11111222,11111222,11111222' 
TABS,ioos:station:wmo:42044:1,2003-01-04T15:09:00Z,26.1914,-97.0507,0.0,4.971136691,108.6540112,6.76,'11111222,11111222,11111222' 
TABS,ioos:station:wmo:42044:1,2003-01-04T15:39:00Z,26.1914,-97.0507,0.0,5.612628618,99.22776653,7.3,'11111222,11111222,11111222' 
TABS,ioos:station:wmo:42044:1,2003-01-04T16:09:00Z,26.1914,-97.0507,0.0,5.064484179,105.9302396,6.68,'11111222,11111222,11111222' 
TABS,ioos:station:wmo:42044:1,2003-01-04T16:39:00Z,26.1914,-97.0507,0.0,4.956167874,94.62964504,6.79,'11111222,11111222,11111222' 
TABS,ioos:station:wmo:42044:1,2003-01-04T17:09:00Z,26.1914,-97.0507,0.0,4.465209961,99.01972226,6.55,'11111222,11111222,11111222' 
TABS,ioos:station:wmo:42044:1,2003-01-04T17:39:00Z,26.1914,-97.0507,0.0,4.254409477,97.29246283,6.27,'11111222,11111222,11111222' 
TABS,ioos:station:wmo:42044:1,2003-01-04T18:09:00Z,26.1914,-97.0507,0.0,4.521957541,102.7765764,6.36,'11111222,11111222,11111222' 
TABS,ioos:station:wmo:42044:1,2003-01-04T18:39:00Z,26.1914,-97.0507,0.0,4.826561923,100.8679882,7.12,'11111222,11111222,11111222' 